This is the latest recevied weather packets stored in our database for station/object K9TLD. If no packets are shown the sender has not sent any weather packets the latest 10 day(s).
| Time | Temp. | Humidity | Pressure | Rain* | Wind** | Luminosity | Snow |
|---|---|---|---|---|---|---|---|
| 1778184982 | 7.78° C | 63% | 1013.3 hPa | 0 mm | - | 286 W/m² | - |
| 1778184679 | 8.33° C | 59% | 1013.4 hPa | 0 mm | - | 146 W/m² | - |
| 1778184375 | 8.89° C | 57% | 1013.4 hPa | 0 mm | - | 251 W/m² | - |
| 1778184071 | 8.89° C | 60% | 1013.5 hPa | 0 mm | - | 226 W/m² | - |
| 1778183769 | 8.33° C | 62% | 1013.3 hPa | 0 mm | - | 269 W/m² | - |
| 1778183466 | 7.78° C | 62% | 1013.7 hPa | 0 mm | - | 159 W/m² | - |
| 1778183162 | 7.78° C | 61% | 1013.6 hPa | 0 mm | - | 111 W/m² | - |
| 1778182857 | 7.78° C | 63% | 1013.3 hPa | 0 mm | - | 78 W/m² | - |
| 1778182555 | 8.33° C | 62% | 1013.5 hPa | 0 mm | - | 82 W/m² | - |
| 1778182252 | 8.33° C | 60% | 1013.5 hPa | 0 mm | - | 60 W/m² | - |
| 1778181948 | 8.89° C | 60% | 1013.3 hPa | 0 mm | - | 167 W/m² | - |
| 1778181645 | 10° C | 59% | 1013.2 hPa | 0 mm | - | 208 W/m² | - |
| 1778181340 | 9.44° C | 61% | 1013.4 hPa | 0 mm | - | 798 W/m² | - |
| 1778181038 | 8.33° C | 61% | 1013.5 hPa | 0 mm | - | 527 W/m² | - |
| 1778180735 | 8.33° C | 62% | 1013.6 hPa | 0 mm | - | 172 W/m² | - |
| 1778180434 | 7.78° C | 63% | 1013.7 hPa | 0 mm | - | 175 W/m² | - |
| 1778180132 | 7.78° C | 62% | 1013.8 hPa | 0 mm | - | 124 W/m² | - |
| 1778179828 | 7.78° C | 64% | 1013.5 hPa | 0 mm | - | 81 W/m² | - |
| 1778179526 | 8.33° C | 63% | 1013.7 hPa | 0 mm | - | 127 W/m² | - |
| 1778179224 | 8.89° C | 64% | 1013.5 hPa | 0 mm | - | 191 W/m² | - |
| 1778178919 | 9.44° C | 62% | 1013.4 hPa | 0 mm | - | 159 W/m² | - |
| 1778178617 | 10° C | 61% | 1013.5 hPa | 0 mm | - | 180 W/m² | - |
| 1778178313 | 10° C | 62% | 1013.5 hPa | 0 mm | - | 265 W/m² | - |
| 1778178009 | 10° C | 60% | 1013.5 hPa | 0 mm | - | 338 W/m² | - |
| 1778177706 | 9.44° C | 59% | 1013.8 hPa | 0 mm | - | 175 W/m² | - |
* Rain latest hour (hover to see other rain measurements)
** Current wind speed in m/s (hover to see current wind gust speed)